[[{"header":{"parameterUnit":"m.s-1","parameterCategory":1,"la1":30.2991,"la2":30.254,"lo1":-89.0895,"lo2":-89.0444,"dy":0.0017,"dx":0.0017,"nx":28,"ny":28,"refTime":"2024-03-28T03:00:00:Z","depth":0,"parameterNumber":2,"parameterNumberName":"U-component_of_WINDS"},"data":[0,0,0,0,0,0,0,0,0,0,0,0,0,0,0,0,0,0,0,0,0,0,0,0,0,0,0,0,0,0,0,0,0,0,0,0,0,0,0,0,0,0,0,0,0,0,0,0,0,0,0,0,0,0,0,0,0,0,2.7124,2.7124,0,2.7179,2.718,2.718,2.7157,2.7156,2.7154,2.7153,2.7209,2.7212,2.7214,0,0,0,0,0,0,0,0,0,0,0,0,0,2.6997,2.6999,2.7123,2.7124,2.7125,2.7179,2.718,2.7181,2.7157,2.7156,2.7154,2.7152,2.7208,2.7211,2.7215,0,0,0,0,0,0,0,0,0,0,0,0,0,2.7052,2.7,2.7123,2.712,2.712,2.7179,2.718,2.7181,2.7157,2.7155,2.7153,2.7152,2.7207,2.7211,2.7215,2.728,0,0,2.7228,2.7229,0,0,0,0,0,0,0,0,2.7049,2.7057,2.712,2.712,2.712,2.7159,2.7156,2.7214,2.7158,2.7143,2.7153,2.7151,2.7194,2.7199,2.7214,2.7283,2.7285,2.7228,2.723,2.7232,2.7233,0,0,0,0,0,0,0,2.7045,2.7054,2.7145,2.7121,2.7121,2.7115,2.7121,2.7167,2.7179,2.7144,2.7143,2.715,2.7194,2.721,2.7215,2.7286,2.7228,2.7231,2.7234,2.7236,2.7413,2.7415,0,0,0,0,0,0,2.7041,2.7051,2.7144,2.7147,2.7079,2.7119,2.7126,2.7149,2.7179,2.7181,2.7151,2.7148,2.7204,2.721,2.7217,2.7296,2.7232,2.7236,2.7238,2.7411,2.7413,2.7416,0,0,0,0,0,0,2.7039,2.705,2.7141,2.7099,2.711,2.7124,2.715,2.7151,2.7167,2.7184,2.7186,2.7166,2.7202,2.7211,2.7265,2.7297,2.7238,2.7242,2.7408,2.7412,2.7415,2.7454,0,0,0,0,0,0,2.7035,2.7049,2.7074,2.71,2.7112,2.7189,2.7152,2.7153,2.7174,2.7171,2.7198,2.72,2.7202,2.7259,2.7269,2.7302,2.7245,2.7405,2.741,2.7414,2.745,2.7458,2.7465,0,0,0,0,0,2.7031,2.7082,2.7075,2.7087,2.7144,2.7191,2.7198,2.7199,2.7177,2.7202,2.7213,2.7199,2.7292,2.7265,2.7276,2.731,2.7403,2.7408,2.7413,2.7446,2.7457,2.7465,0,0,0,0,0,0,2.706,2.7086,2.7078,2.714,2.7163,2.7187,2.7218,2.721,2.724,2.7235,2.7235,2.7241,2.7297,2.7309,2.7278,2.7376,2.7344,2.7352,2.7366,2.7376,2.7383,2.7379,2.7248,0,0,0,0,0,2.7073,2.7109,2.713,2.7182,2.7195,2.7205,2.7225,2.7224,2.7248,2.7258,2.7273,2.7297,2.7332,2.7354,2.7387,2.7452,2.7457,2.7481,2.7489,2.7495,2.7501,2.7537,2.7548,2.7432,2.7432,2.7432,0,0,2.7102,2.712,2.7143,2.7189,2.7207,2.7244,2.7213,2.7254,2.7282,2.7264,2.7316,2.7328,2.7355,2.7415,2.7442,2.7426,2.7535,2.7502,2.7507,2.7509,2.7543,2.7554,2.7564,2.7436,2.7435,2.7435,0,0,2.7172,2.719,2.7236,2.7255,2.7283,2.729,2.7301,2.7326,2.7334,2.7386,2.7374,2.7407,2.7466,2.7486,2.7504,2.7584,2.7572,2.7594,2.7635,2.767,2.7679,2.7687,2.7716,2.7726,2.7601,2.7601,2.7601,0,2.7204,2.726,2.726,2.7302,2.7323,2.731,2.7356,2.7375,2.7412,2.7427,2.7409,2.7484,2.7501,2.7566,2.7585,2.76,2.7613,2.7591,2.7678,2.7686,2.7693,2.772,2.7731,2.7603,2.7603,2.7603,2.7603,0,2.7297,2.7336,2.737,2.7407,2.7431,2.7475,2.7483,2.7508,2.7505,2.7513,2.7567,2.7587,2.7624,2.764,2.7637,2.7704,2.7694,2.7677,2.7646,2.7707,2.7732,2.7743,2.7607,2.7606,2.7605,2.7605,0,0,2.7386,2.7424,2.7437,2.7454,2.7484,2.7514,2.7558,2.7595,2.7616,2.7643,2.768,2.7731,2.7716,2.7737,2.7736,2.7767,2.7829,2.7746,2.7747,2.7761,2.7905,2.7917,2.7929,2.7822,2.7824,2.7825,2.7902,0,2.7459,2.7536,2.7539,2.7609,2.7645,2.7634,2.7672,2.7695,2.7704,2.7737,2.7747,2.7784,2.7761,2.7773,2.7803,2.7815,2.7858,2.781,2.7856,2.7857,2.7849,2.7942,2.7955,2.8027,2.7912,2.7914,2.7915,0,2.7554,2.7585,2.7659,2.7685,2.77,2.7735,2.7769,2.78,2.7826,2.7831,2.7855,2.785,2.7895,2.7862,2.7924,2.7892,2.7911,2.792,2.7923,2.7926,2.789,2.7948,2.8049,2.806,2.7931,2.793,2.7929,0,2.7612,2.7671,2.7723,2.7738,2.777,2.7795,2.7809,2.7834,2.7856,2.7886,2.79,2.7935,2.7954,2.7981,2.7986,2.7962,2.8049,2.8017,2.8054,2.8054,2.8072,2.8071,2.8177,2.8085,2.8085,2.8085,2.8085,0,2.7693,2.7739,2.775,2.7782,2.7833,2.7836,2.7886,2.7899,2.7921,2.7955,2.7948,2.798,2.7985,2.8018,2.8023,2.8074,2.8082,2.8087,2.8088,2.8088,2.8087,2.81,2.8095,2.8088,2.8087,2.8086,2.8086,0,2.7766,2.7775,2.7831,2.7857,2.7865,2.7902,2.7924,2.7955,2.7964,2.8007,2.8018,2.8032,2.8072,2.8079,2.8126,2.8129,2.8189,2.8185,2.8181,2.818,2.8217,2.8213,2.8335,2.8351,2.8249,2.825,2.8251,0,2.7816,2.7851,2.7882,2.7904,2.792,2.7957,2.798,2.7984,2.8008,2.8041,2.8068,2.8107,2.8138,2.8202,2.8216,2.8252,2.8248,2.8289,2.8253,2.8253,2.8249,2.8246,2.825,2.8295,2.8296,2.8297,2.8298,0,2.7905,2.7909,2.7942,2.7978,2.8005,2.8033,2.806,2.8079,2.8087,2.8115,2.8155,2.8179,2.8228,2.8266,2.8302,2.8317,2.8309,2.8309,2.8319,2.8319,2.8315,2.8318,2.8199,2.8306,2.8305,2.8304,2.8304,2.8304,2.7969,2.7999,2.8026,2.8064,2.8084,2.811,2.814,2.8153,2.8187,2.8227,2.8228,2.8272,2.8298,2.8346,2.8363,2.8398,2.8385,2.84,2.8404,2.8408,2.8411,2.831,2.8405,2.8404,2.8404,2.8404,2.8404,0,2.8057,2.8074,2.8109,2.8147,2.8176,2.8167,2.8196,2.8222,2.8261,2.8286,2.8318,2.8365,2.8402,2.842,2.8458,2.8482,2.8479,2.8492,2.849,2.8493,2.842,2.8408,2.8493,2.8493,2.8493,2.8493,2.8493,2.8493,2.8107,2.8159,2.8165,2.8227,2.8244,2.8287,2.8305,2.8329,2.8349,2.8402,2.8433,2.8445,2.8468,2.8507,2.8541,2.8545,2.8559,2.8574,2.8576,2.8507,2.8498,2.849,2.8478,2.8577,2.8577,2.8646,2.8647,2.8647]},{"header":{"parameterUnit":"m.s-1","parameterCategory":1,"la1":30.2991,"la2":30.254,"lo1":-89.0895,"lo2":-89.0444,"dy":0.0017,"dx":0.0017,"nx":28,"ny":28,"refTime":"2024-03-28T03:00:00:Z","depth":0,"parameterNumber":3,"parameterNumberName":"V-component_of_WINDS"},"data":[0,0,0,0,0,0,0,0,0,0,0,0,0,0,0,0,0,0,0,0,0,0,0,0,0,0,0,0,0,0,0,0,0,0,0,0,0,0,0,0,0,0,0,0,0,0,0,0,0,0,0,0,0,0,0,0,0,0,-5.8118,-5.8119,0,-5.8263,-5.8264,-5.8266,-5.8205,-5.8201,-5.8198,-5.8195,-5.8341,-5.8348,-5.8355,0,0,0,0,0,0,0,0,0,0,0,0,0,-5.7785,-5.7792,-5.8117,-5.8119,-5.8121,-5.8262,-5.8264,-5.8266,-5.8205,-5.8201,-5.8197,-5.8193,-5.8338,-5.8347,-5.8355,0,0,0,0,0,0,0,0,0,0,0,0,0,-5.793,-5.7794,-5.8117,-5.8108,-5.8108,-5.8262,-5.8264,-5.8267,-5.8206,-5.8201,-5.8196,-5.8191,-5.8336,-5.8346,-5.8356,-5.8527,0,0,-5.8389,-5.8394,0,0,0,0,0,0,0,0,-5.7922,-5.7942,-5.8107,-5.8109,-5.811,-5.821,-5.8201,-5.8354,-5.8208,-5.8169,-5.8194,-5.8188,-5.8301,-5.8315,-5.8353,-5.8534,-5.854,-5.839,-5.8397,-5.8401,-5.8404,0,0,0,0,0,0,0,-5.7912,-5.7936,-5.8175,-5.811,-5.8111,-5.8096,-5.811,-5.823,-5.8263,-5.8172,-5.8168,-5.8186,-5.8301,-5.8343,-5.8356,-5.8542,-5.839,-5.8399,-5.8406,-5.841,-5.8872,-5.8877,0,0,0,0,0,0,-5.7902,-5.7928,-5.817,-5.8179,-5.8001,-5.8106,-5.8122,-5.8183,-5.8261,-5.8268,-5.819,-5.8183,-5.8327,-5.8344,-5.8361,-5.8567,-5.8401,-5.8411,-5.8417,-5.8866,-5.8873,-5.8879,0,0,0,0,0,0,-5.7895,-5.7924,-5.8164,-5.8053,-5.8082,-5.8117,-5.8186,-5.8189,-5.8231,-5.8275,-5.828,-5.8228,-5.8324,-5.8346,-5.8487,-5.8571,-5.8416,-5.8426,-5.8859,-5.8868,-5.8876,-5.898,0,0,0,0,0,0,-5.7886,-5.7922,-5.7988,-5.8054,-5.8088,-5.8289,-5.8191,-5.8195,-5.825,-5.8241,-5.8311,-5.8318,-5.8321,-5.8471,-5.8497,-5.8583,-5.8434,-5.8852,-5.8863,-5.8873,-5.8969,-5.8991,-5.901,0,0,0,0,0,-5.7874,-5.8011,-5.7992,-5.8021,-5.8171,-5.8294,-5.8313,-5.8315,-5.8257,-5.8323,-5.8352,-5.8316,-5.8558,-5.8486,-5.8515,-5.8606,-5.8846,-5.886,-5.8872,-5.896,-5.8987,-5.901,0,0,0,0,0,0,-5.7952,-5.8019,-5.7999,-5.8161,-5.8222,-5.8283,-5.8367,-5.8343,-5.8421,-5.841,-5.8408,-5.8424,-5.857,-5.8601,-5.8521,-5.8775,-5.8693,-5.8713,-5.875,-5.8776,-5.8796,-5.8786,-5.8443,0,0,0,0,0,-5.7988,-5.8083,-5.8136,-5.8274,-5.8306,-5.8331,-5.8384,-5.8381,-5.8444,-5.8469,-5.8508,-5.857,-5.866,-5.8719,-5.8804,-5.8973,-5.8988,-5.905,-5.907,-5.9087,-5.9104,-5.9197,-5.9225,-5.8922,-5.8922,-5.8922,0,0,-5.8064,-5.8112,-5.8172,-5.8291,-5.8338,-5.8436,-5.8353,-5.846,-5.8532,-5.8485,-5.8621,-5.8652,-5.8721,-5.8877,-5.8947,-5.8907,-5.9191,-5.9103,-5.9116,-5.9125,-5.9213,-5.9242,-5.9267,-5.8931,-5.893,-5.8928,0,0,-5.8251,-5.8297,-5.8418,-5.8467,-5.854,-5.8556,-5.8585,-5.865,-5.8669,-5.8806,-5.8773,-5.8858,-5.9013,-5.9064,-5.911,-5.9318,-5.9288,-5.9345,-5.9453,-5.9543,-5.9567,-5.9588,-5.9664,-5.9691,-5.9362,-5.9363,-5.9363,0,-5.8336,-5.8483,-5.8482,-5.8593,-5.8646,-5.8609,-5.8731,-5.8778,-5.8875,-5.8912,-5.8866,-5.9061,-5.9104,-5.9272,-5.9323,-5.9362,-5.9395,-5.9338,-5.9564,-5.9585,-5.9605,-5.9677,-5.9705,-5.9369,-5.9368,-5.9368,-5.9367,0,-5.8583,-5.8686,-5.8774,-5.887,-5.8933,-5.9049,-5.9066,-5.913,-5.912,-5.9141,-5.9281,-5.9332,-5.9428,-5.9467,-5.9459,-5.9635,-5.9608,-5.9563,-5.948,-5.964,-5.9708,-5.9735,-5.9379,-5.9376,-5.9374,-5.9373,0,0,-5.8825,-5.8919,-5.8952,-5.8996,-5.9073,-5.9152,-5.9266,-5.936,-5.9416,-5.9483,-5.9579,-5.9711,-5.9671,-5.9723,-5.972,-5.9799,-5.9962,-5.9745,-5.9746,-5.9785,-6.0161,-6.0195,-6.0227,-5.9943,-5.9948,-5.9952,-6.0155,0,-5.9019,-5.922,-5.9223,-5.9408,-5.9502,-5.9469,-5.9568,-5.9626,-5.9649,-5.9732,-5.9756,-5.985,-5.9789,-5.9821,-5.9898,-5.9926,-6.0038,-5.9911,-6.0032,-6.0036,-6.0017,-6.0262,-6.0298,-6.0488,-6.0182,-6.0186,-6.0189,0,-5.9273,-5.9351,-5.9545,-5.961,-5.965,-5.9739,-5.9827,-5.9907,-5.9972,-5.9983,-6.0042,-6.0028,-6.0143,-6.0056,-6.0216,-6.013,-6.0179,-6.0201,-6.0208,-6.022,-6.0123,-6.0282,-6.0548,-6.0577,-6.0231,-6.0227,-6.0224,0,-5.9432,-5.9584,-5.9721,-5.9759,-5.9838,-5.9901,-5.9937,-5.9997,-6.0054,-6.013,-6.0167,-6.0255,-6.0304,-6.0372,-6.0381,-6.0317,-6.0542,-6.0456,-6.0555,-6.0555,-6.0604,-6.0601,-6.0884,-6.0634,-6.0634,-6.0633,-6.0633,0,-5.965,-5.977,-5.9793,-5.9877,-6.0011,-6.0013,-6.0145,-6.0176,-6.023,-6.0319,-6.0294,-6.0378,-6.0384,-6.047,-6.0478,-6.061,-6.0631,-6.0643,-6.0644,-6.0647,-6.0646,-6.068,-6.0668,-6.0641,-6.0639,-6.0638,-6.0636,0,-5.985,-5.987,-6.0016,-6.0079,-6.0098,-6.0194,-6.0248,-6.0328,-6.0348,-6.0461,-6.0488,-6.0519,-6.0619,-6.0635,-6.0752,-6.0757,-6.0916,-6.0902,-6.0895,-6.0893,-6.0992,-6.0983,-6.1307,-6.135,-6.1071,-6.1074,-6.1076,0,-5.9988,-6.008,-6.0154,-6.0212,-6.0252,-6.0346,-6.0404,-6.0409,-6.0471,-6.0553,-6.0624,-6.0722,-6.08,-6.0962,-6.0995,-6.1085,-6.1074,-6.1181,-6.1087,-6.1087,-6.1077,-6.1073,-6.1082,-6.12,-6.1203,-6.1205,-6.1207,0,-6.0232,-6.0238,-6.0323,-6.0413,-6.0484,-6.0555,-6.0621,-6.067,-6.0684,-6.0755,-6.0858,-6.0919,-6.104,-6.1138,-6.1227,-6.1262,-6.1238,-6.1237,-6.1265,-6.1269,-6.1261,-6.1268,-6.0946,-6.1229,-6.1227,-6.1226,-6.1224,-6.1223,-6.0406,-6.0487,-6.0552,-6.0649,-6.07,-6.0763,-6.0842,-6.0872,-6.0958,-6.1058,-6.1055,-6.1169,-6.1232,-6.135,-6.1392,-6.148,-6.1445,-6.1485,-6.1496,-6.1506,-6.1516,-6.1246,-6.1496,-6.1495,-6.1495,-6.1494,-6.1494,0,-6.065,-6.0691,-6.0779,-6.0874,-6.095,-6.0921,-6.0993,-6.1059,-6.1159,-6.1221,-6.1299,-6.1418,-6.1513,-6.1554,-6.1647,-6.171,-6.1701,-6.1734,-6.1731,-6.174,-6.1541,-6.1509,-6.174,-6.174,-6.174,-6.174,-6.174,-6.174,-6.0786,-6.0922,-6.0936,-6.1096,-6.1135,-6.1247,-6.1291,-6.135,-6.1399,-6.1533,-6.1612,-6.1638,-6.1692,-6.1789,-6.1875,-6.1884,-6.192,-6.1959,-6.1964,-6.1778,-6.1753,-6.1729,-6.1699,-6.1966,-6.1967,-6.2154,-6.2156,-6.2158]}]]